Temp
10 10 10 10 10 10 10 10 10 10 10 10 10 11 12 11 11 11 11 11 11 11 11 11 11 11 11 10 10 10 10 11 10 10 10 10 10 10 10 10 10 10 10 11 11 11 11 11 11 11 11 10 10 10 10 10 10 10 10 11 11 11 11
10 10 10 10 10 10 10 10 9 9 10 10 10 11 12 11 11 11 11 11 11 11 11 11 10 10 10 10 10 10 10 10 10 10 10 10 10 10 10 10 10 10 10 11 11 11 11 11 11 11 11 10 10 10 10 10 10 10 10 10 10 10 10
10 10 10 10 10 10 10 10 9 9 9 10 10 11 12 12 11 11 11 11 11 11 10 10 10 10 10 10 10 10 10 10 10 10 10 10 10 10 10 10 10 10 11 11 11 11 11 11 11 11 11 10 10 10 10 10 10 10 10 10 10 10 10
10 10 10 10 10 10 10 10 9 9 10 10 10 11 12 12 11 11 10 10 11 11 11 10 10 10 10 10 10 10 10 10 10 10 10 10 10 10 10 10 11 11 11 11 11 11 11 11 11 11 11 11 11 11 11 11 11 10 10 10 10 10 10
10 10 10 10 10 10 10 10 9 9 10 10 10 11 12 12 11 11 10 10 11 11 10 10 10 10 10 10 10 10 10 10 10 10 10 10 10 10 10 10 10 11 10 11 11 11 11 11 11 11 11 11 11 11 11 11 11 10 10 10 10 10 10
10 10 10 10 10 10 10 9 9 9 9 10 10 10 11 12 11 11 10 10 11 10 10 10 10 10 10 10 10 10 10 10 10 10 10 10 10 10 10 10 10 10 10 10 10 10 11 11 11 11 11 11 11 11 11 11 11 10 10 10 10 10 10
10 11 10 10 10 10 10 9 9 9 9 10 10 10 10 11 12 11 11 10 10 10 10 10 10 10 10 10 10 10 10 10 10 10 10 10 10 10 10 10 10 10 10 10 10 10 10 10 10 10 11 11 11 11 11 11 10 10 10 10 10 10 10
10 10 10 10 10 10 10 9 9 9 10 9 10 10 10 11 11 12 11 11 10 10 10 10 10 10 10 10 10 10 10 10 10 10 10 10 10 10 10 10 10 10 10 10 10 10 10 10 10 10 10 10 11 11 11 11 11 10 10 10 10 10 10
10 10 10 10 10 10 10 10 9 9 10 10 10 10 10 10 11 11 11 11 10 10 10 10 10 10 10 10 10 10 10 10 10 10 10 10 10 10 10 10 10 10 10 10 10 10 10 10 10 10 10 10 10 10 11 11 11 11 10 10 10 10 10
9 10 11 10 10 10 10 10 10 10 10 10 10 10 10 10 10 10 11 11 10 10 10 10 10 10 10 10 11 10 11 11 11 10 10 10 10 10 10 10 10 10 10 10 10 10 10 10 10 10 10 10 10 10 10 10 10 11 10 10 10 10 10
9 10 10 10 10 10 10 9 9 10 10 9 10 10 10 10 10 10 10 10 10 10 10 9 10 10 10 10 10 10 10 11 11 11 11 10 10 10 10 10 10 10 10 10 10 10 10 10 10 10 10 10 11 11 10 10 10 10 10 10 10 10 10
9 9 9 9 10 10 10 10 9 9 9 9 10 10 9 10 10 10 10 10 10 10 10 9 9 10 10 10 10 10 10 11 11 11 11 11 10 10 10 10 10 10 10 10 10 10 10 10 10 10 10 10 10 11 11 11 10 10 10 10 10 10 10
9 9 9 10 10 10 10 10 9 9 9 10 10 10 10 10 10 10 10 10 10 10 10 10 9 9 9 10 10 10 10 10 11 11 11 11 11 11 10 10 10 10 10 10 10 10 10 10 10 10 10 10 10 10 11 11 11 11 10 10 10 10 10
9 9 9 9 10 10 10 10 10 10 10 11 10 10 10 10 10 10 10 10 10 10 10 10 9 9 9 9 9 10 10 10 10 10 11 11 11 11 11 11 10 10 10 10 10 10 10 10 10 10 10 10 10 10 10 11 11 11 11 11 11 11 11
8 9 9 9 9 10 10 10 10 10 11 11 11 10 10 10 10 10 10 10 10 10 10 10 10 9 9 9 9 10 10 10 10 10 10 10 10 11 11 11 11 11 11 11 11 11 11 11 11 10 10 10 10 10 10 11 11 11 11 11 11 11 11
8 8 9 9 9 9 9 9 9 9 10 10 10 10 11 11 10 10 10 10 10 10 10 10 9 9 10 10 10 10 10 10 10 10 11 11 10 11 11 11 11 11 11 11 11 11 11 11 11 11 11 10 10 10 10 11 11 11 11 11 11 11 11
7 8 8 8 8 9 8 9 9 9 9 10 10 10 10 10 10 10 10 10 10 10 10 10 9 9 10 10 10 10 10 10 10 11 11 11 11 11 11 10 10 10 10 11 11 11 11 11 11 11 12 11 11 11 10 11 11 11 11 11 11 11 11
8 8 7 7 8 8 8 8 8 8 8 9 9 9 9 9 10 10 10 10 10 9 10 10 9 9 10 10 10 10 10 10 10 10 11 11 11 11 10 10 10 10 10 10 10 10 11 11 11 11 11 12 12 11 11 11 11 11 11 11 11 11 11
8 8 8 8 8 8 8 8 8 8 8 9 9 9 9 9 9 9 9 9 9 9 9 10 9 9 9 9 10 9 10 10 10 10 10 10 10 10 10 10 10 9 9 10 10 10 10 11 10 10 11 11 11 12 12 11 11 11 11 11 11 11 11
8 8 8 8 8 8 8 8 8 9 9 9 9 9 9 9 9 9 9 9 10 10 9 9 9 9 9 9 9 10 10 10 10 10 10 10 10 10 10 10 10 10 10 9 9 10 10 10 10 10 10 10 11 11 11 12 11 11 11 11 11 10 10
8 8 8 8 8 8 8 8 8 9 9 9 9 10 10 10 9 9 9 9 9 9 9 9 9 9 9 9 9 10 10 10 10 10 10 10 10 10 10 10 10 10 10 10 10 10 10 10 10 10 10 10 10 11 11 12 12 11 11 11 11 10 10
8 8 8 8 8 8 8 8 8 9 9 9 9 9 10 10 10 10 9 9 9 9 9 9 9 9 9 9 9 9 9 9 10 10 10 10 9 9 10 10 10 10 10 10 10 10 10 10 10 10 10 10 10 11 11 12 12 12 11 11 11 11 11
8 8 8 8 9 9 8 8 8 8 8 8 8 8 9 9 9 10 10 10 10 10 10 9 9 9 9 9 9 9 9 9 9 10 10 10 9 9 10 10 10 10 10 10 10 10 10 10 10 10 10 10 10 10 11 11 12 11 11 11 11 11 11
7 7 8 8 8 8 8 8 8 8 8 8 8 8 8 8 9 9 9 10 10 10 10 10 10 10 9 9 9 9 9 9 9 9 9 9 9 9 9 10 10 10 10 10 10 10 10 10 10 10 10 10 10 10 11 11 11 11 11 11 11 11 11
8 7 7 7 7 8 8 7 7 8 8 8 8 8 8 8 8 9 9 9 9 9 10 10 10 10 9 9 9 9 9 9 9 9 9 9 9 9 9 10 10 10 10 10 10 10 10 10 10 9 10 10 10 10 10 10 10 10 11 11 11 11 11
8 7 7 7 6 7 7 7 7 7 7 7 8 8 7 7 8 8 8 8 8 9 9 9 9 9 9 9 9 9 9 9 9 9 9 9 9 9 9 10 10 10 10 10 10 10 10 10 10 10 10 10 10 10 10 10 10 10 10 10 11 11 10
8 7 7 7 6 6 7 7 7 7 7 7 7 7 7 7 7 7 8 8 8 8 8 9 9 9 9 9 9 9 9 9 9 9 9 9 9 10 10 10 10 10 10 10 10 10 10 10 10 10 10 10 10 10 10 10 10 10 10 10 10 11 10
7 7 7 7 6 6 6 7 7 7 7 7 7 7 7 7 7 7 7 7 8 8 8 8 8 9 9 9 9 9 9 9 9 9 9 9 9 10 10 10 10 10 10 10 10 10 10 10 10 10 10 10 10 10 10 10 10 10 10 10 10 10 10
6 6 6 6 6 6 6 6 6 6 6 7 7 7 7 7 7 7 7 7 7 8 8 8 8 8 9 9 9 9 9 9 9 9 9 9 9 9 9 9 9 9 10 9 9 9 9 9 10 10 10 10 10 10 10 10 10 10 11 11 10 10 10
5 5 5 5 5 5 5 5 5 6 6 6 6 7 7 7 7 7 8 8 8 8 8 8 8 8 8 9 9 9 9 9 9 9 9 9 9 9 9 9 9 9 9 9 9 9 9 9 9 10 10 10 10 10 10 10 10 11 11 11 11 10 10
5 5 5 5 5 5 5 5 5 6 6 6 6 6 7 7 7 7 7 7 8 8 8 8 8 8 8 8 9 9 9 9 9 9 9 9 9 9 9 9 9 9 9 9 9 9 9 9 9 9 10 10 10 10 10 10 10 11 11 11 11 10 10
5 5 5 5 5 5 5 5 6 6 6 6 6 6 6 6 6 6 7 7 7 7 8 8 8 8 8 8 8 9 9 9 9 9 9 9 9 9 9 9 9 9 9 9 9 9 9 9 9 9 9 10 10 9 10 10 10 10 10 10 10 11 11
4 5 5 5 5 5 5 5 5 6 6 6 6 6 6 6 6 6 6 6 7 7 7 7 8 8 8 8 8 8 8 9 9 9 9 9 9 9 9 9 9 9 9 9 9 9 9 9 9 9 9 9 9 9 9 10 10 10 10 10 10 10 11
4 4 4 5 5 5 5 5 5 5 5 5 5 6 6 6 6 6 6 6 6 6 7 7 7 7 7 7 7 8 8 8 8 9 9 9 9 9 9 9 9 9 9 9 9 9 9 9 9 9 9 9 9 9 9 9 10 10 10 10 10 10 10
4 4 4 4 4 4 4 4 5 5 5 5 5 5 5 5 5 6 6 6 6 6 6 6 6 7 7 7 7 7 7 8 8 8 8 8 8 9 9 9 9 9 9 9 9 9 9 9 9 9 9 9 10 10 10 10 9 10 10 10 10 10 10
4 4 4 4 4 4 4 4 4 4 4 4 4 5 5 5 5 5 5 5 6 6 6 6 6 6 6 7 7 7 7 7 7 7 8 8 8 8 8 8 8 9 9 9 9 9 9 9 9 9 9 9 9 10 10 10 10 10 10 10 10 10 10
4 4 4 4 4 4 4 4 4 4 4 4 4 4 5 5 5 5 5 5 5 5 6 6 6 6 6 6 6 7 7 7 7 7 7 8 8 8 8 8 8 8 8 9 9 9 9 9 9 9 9 9 10 9 9 9 10 10 9 9 9 9 9
3 3 3 4 4 4 4 4 4 3 4 4 4 4 4 5 5 5 5 5 5 5 6 6 6 6 6 6 6 6 7 7 7 7 7 7 7 8 8 8 8 8 8 8 8 8 8 8 9 9 9 9 9 9 9 9 9 9 9 9 9 9 9
Height
3192 3194 3196 3199 3200 3203 3206 3209 3210 3211 3213 3215 3216 3218 3220 3221 3222 3223 3224 3225 3226 3227 3229 3230 3232 3233 3235 3236 3238 3239 3240 3242 3243 3244 3246 3247 3248 3248 3249 3250 3250 3251 3252 3252 3253 3253 3254 3254 3255 3255 3256 3257 3258 3258 3259 3260 3260 3261 3262 3262 3263 3263 3264
3190 3192 3195 3197 3199 3200 3203 3207 3209 3211 3212 3214 3215 3217 3219 3220 3221 3222 3224 3224 3225 3227 3228 3230 3231 3232 3234 3235 3237 3238 3239 3241 3242 3243 3245 3246 3247 3248 3249 3249 3250 3251 3252 3252 3253 3253 3254 3255 3255 3255 3256 3257 3257 3258 3259 3259 3260 3261 3261 3262 3262 3263 3263
3187 3190 3193 3196 3199 3201 3202 3204 3207 3209 3211 3213 3214 3215 3217 3219 3220 3221 3222 3224 3224 3225 3227 3228 3230 3232 3233 3234 3235 3237 3238 3240 3241 3242 3244 3245 3246 3247 3248 3249 3250 3250 3251 3252 3252 3253 3254 3254 3255 3255 3256 3256 3256 3257 3258 3259 3259 3260 3261 3261 3262 3262 3263
3185 3188 3191 3195 3199 3202 3203 3203 3205 3207 3209 3211 3212 3213 3215 3217 3218 3220 3221 3222 3223 3224 3226 3227 3229 3231 3232 3233 3235 3236 3237 3239 3240 3241 3243 3244 3245 3246 3247 3248 3249 3250 3251 3251 3252 3253 3253 3254 3254 3255 3255 3256 3256 3256 3257 3258 3258 3259 3260 3261 3261 3262 3262
3183 3186 3190 3194 3197 3200 3200 3200 3202 3206 3208 3210 3211 3211 3213 3214 3216 3218 3220 3221 3222 3224 3225 3227 3228 3230 3231 3232 3234 3235 3237 3238 3239 3240 3241 3243 3244 3245 3246 3247 3248 3249 3250 3251 3252 3253 3253 3254 3254 3255 3255 3255 3256 3256 3257 3257 3258 3258 3259 3260 3261 3261 3262
3182 3185 3189 3192 3195 3196 3196 3197 3200 3203 3205 3207 3208 3209 3210 3212 3214 3216 3218 3219 3220 3222 3223 3224 3226 3228 3229 3231 3232 3234 3235 3237 3238 3239 3240 3241 3243 3244 3245 3246 3247 3248 3249 3250 3251 3252 3253 3254 3254 3255 3255 3255 3256 3256 3256 3257 3257 3258 3258 3259 3260 3260 3261
3179 3183 3187 3190 3192 3194 3196 3197 3199 3200 3201 3203 3206 3207 3208 3210 3213 3214 3216 3217 3219 3220 3222 3223 3224 3226 3227 3229 3230 3232 3233 3235 3237 3238 3239 3240 3241 3243 3244 3245 3246 3248 3249 3250 3251 3252 3253 3253 3254 3254 3255 3255 3255 3256 3256 3256 3257 3257 3258 3258 3259 3259 3260
3178 3182 3186 3189 3190 3191 3194 3196 3196 3198 3200 3202 3204 3206 3207 3209 3211 3214 3215 3217 3219 3220 3222 3223 3223 3225 3226 3227 3229 3230 3232 3233 3234 3236 3237 3239 3240 3242 3243 3244 3245 3246 3248 3249 3250 3251 3252 3252 3253 3253 3254 3255 3255 3255 3256 3256 3256 3257 3257 3258 3258 3259 3259
3178 3181 3184 3187 3188 3190 3193 3194 3193 3196 3200 3202 3204 3206 3206 3207 3209 3212 3214 3216 3218 3220 3222 3222 3223 3224 3225 3226 3227 3229 3230 3232 3233 3234 3235 3237 3238 3240 3242 3243 3244 3245 3246 3248 3248 3249 3250 3251 3252 3252 3253 3254 3254 3255 3255 3256 3256 3256 3257 3257 3257 3258 3258
3178 3180 3182 3185 3187 3189 3191 3192 3192 3195 3199 3201 3203 3204 3204 3206 3208 3209 3211 3215 3218 3220 3221 3222 3222 3223 3224 3225 3226 3227 3228 3230 3231 3232 3233 3234 3236 3239 3240 3242 3243 3244 3245 3246 3247 3248 3249 3250 3250 3251 3252 3253 3253 3254 3255 3255 3255 3256 3256 3256 3257 3257 3257
3178 3179 3181 3184 3185 3187 3188 3190 3192 3193 3195 3197 3199 3200 3201 3203 3206 3207 3210 3215 3217 3219 3220 3219 3220 3221 3222 3223 3225 3226 3227 3228 3229 3231 3231 3232 3234 3236 3239 3240 3241 3243 3244 3245 3245 3246 3247 3248 3249 3250 3250 3251 3252 3253 3253 3254 3254 3255 3255 3255 3256 3256 3256
3179 3180 3181 3182 3184 3184 3186 3189 3191 3190 3191 3194 3196 3196 3197 3199 3202 3205 3208 3211 3213 3216 3218 3216 3216 3218 3220 3220 3222 3223 3225 3226 3227 3229 3231 3231 3231 3233 3235 3238 3239 3240 3242 3243 3244 3245 3245 3246 3247 3248 3249 3250 3250 3251 3252 3252 3253 3253 3253 3254 3254 3255 3255
3178 3180 3181 3182 3183 3184 3186 3188 3190 3189 3189 3191 3193 3193 3195 3197 3200 3203 3206 3208 3210 3213 3215 3214 3213 3213 3215 3218 3219 3221 3222 3223 3225 3227 3230 3231 3230 3230 3232 3234 3237 3238 3239 3240 3241 3242 3243 3244 3245 3246 3247 3248 3248 3249 3250 3250 3251 3252 3252 3252 3253 3253 3253
3177 3179 3181 3182 3183 3184 3185 3186 3188 3188 3188 3190 3191 3192 3194 3195 3198 3201 3204 3207 3209 3211 3212 3214 3214 3213 3214 3215 3216 3217 3219 3221 3223 3225 3228 3230 3231 3231 3231 3232 3234 3236 3237 3238 3239 3240 3241 3242 3243 3244 3245 3245 3246 3247 3248 3248 3249 3250 3250 3251 3251 3251 3252
3176 3178 3181 3183 3184 3185 3184 3185 3186 3187 3188 3189 3190 3191 3193 3194 3196 3200 3204 3206 3208 3208 3210 3212 3213 3214 3215 3215 3214 3215 3217 3219 3220 3223 3225 3228 3230 3230 3230 3231 3232 3234 3236 3237 3238 3239 3240 3240 3241 3242 3242 3243 3244 3245 3245 3246 3247 3248 3249 3249 3249 3250 3250
3176 3177 3179 3181 3184 3184 3184 3184 3185 3187 3188 3189 3190 3191 3193 3194 3197 3200 3204 3205 3205 3205 3207 3209 3210 3211 3212 3213 3213 3214 3215 3217 3218 3220 3223 3226 3228 3229 3231 3232 3232 3233 3234 3235 3236 3237 3238 3239 3240 3240 3240 3241 3241 3242 3243 3244 3245 3246 3247 3247 3248 3248 3248
3176 3177 3178 3180 3182 3183 3184 3185 3185 3186 3188 3189 3190 3191 3192 3194 3196 3198 3201 3203 3202 3202 3204 3206 3207 3208 3209 3211 3212 3213 3214 3215 3217 3219 3221 3224 3227 3229 3231 3232 3232 3231 3232 3233 3233 3234 3236 3237 3237 3238 3238 3238 3238 3239 3240 3241 3242 3243 3244 3245 3245 3246 3246
3177 3177 3178 3179 3181 3182 3183 3184 3185 3186 3187 3188 3189 3191 3191 3193 3194 3195 3197 3200 3200 3199 3200 3202 3203 3205 3207 3208 3209 3210 3211 3213 3215 3217 3219 3221 3223 3225 3228 3229 3229 3228 3229 3230 3230 3231 3233 3234 3234 3235 3236 3236 3236 3236 3237 3238 3239 3240 3241 3242 3242 3243 3243
3177 3178 3178 3179 3180 3182 3182 3183 3184 3185 3186 3187 3188 3190 3191 3192 3193 3193 3195 3197 3198 3198 3199 3200 3201 3202 3203 3205 3206 3207 3208 3210 3212 3213 3215 3217 3219 3221 3223 3224 3225 3225 3226 3227 3227 3228 3229 3230 3231 3231 3232 3233 3234 3235 3235 3235 3236 3237 3238 3238 3239 3240 3240
3177 3178 3179 3179 3180 3181 3182 3182 3183 3184 3185 3187 3188 3189 3191 3192 3193 3194 3194 3195 3195 3196 3198 3199 3199 3199 3200 3201 3202 3204 3206 3207 3209 3210 3212 3213 3215 3217 3219 3220 3221 3222 3223 3224 3225 3225 3225 3226 3227 3228 3229 3230 3231 3232 3233 3233 3233 3233 3234 3235 3236 3237 3237
3178 3178 3179 3180 3180 3181 3182 3182 3183 3184 3185 3187 3188 3189 3191 3192 3192 3193 3193 3194 3195 3195 3197 3198 3198 3198 3199 3199 3200 3202 3203 3205 3206 3208 3209 3209 3210 3212 3214 3215 3217 3218 3219 3220 3221 3222 3222 3223 3224 3225 3226 3226 3227 3228 3229 3230 3231 3231 3231 3232 3233 3234 3234
3178 3179 3179 3180 3180 3181 3182 3183 3184 3185 3186 3187 3188 3189 3190 3191 3192 3192 3192 3193 3194 3194 3195 3196 3197 3198 3198 3199 3200 3201 3202 3203 3204 3205 3206 3206 3206 3207 3209 3211 3213 3214 3215 3216 3217 3218 3219 3220 3221 3222 3223 3223 3224 3224 3226 3227 3228 3229 3229 3230 3231 3231 3232
3179 3179 3180 3180 3181 3182 3182 3183 3184 3185 3186 3187 3187 3188 3189 3190 3191 3192 3192 3192 3193 3193 3194 3195 3196 3196 3197 3197 3198 3199 3199 3200 3201 3202 3203 3204 3204 3203 3205 3207 3209 3210 3211 3213 3214 3215 3215 3216 3217 3218 3219 3220 3221 3222 3223 3224 3225 3225 3226 3227 3228 3229 3229
3179 3180 3180 3181 3181 3182 3182 3183 3184 3184 3185 3186 3187 3187 3188 3189 3190 3191 3192 3192 3192 3193 3193 3194 3195 3195 3195 3196 3196 3196 3197 3197 3198 3198 3199 3200 3201 3201 3202 3204 3205 3207 3208 3209 3210 3211 3212 3212 3213 3214 3215 3216 3218 3219 3220 3221 3221 3221 3222 3224 3225 3225 3226
3178 3180 3180 3180 3181 3182 3182 3182 3183 3183 3184 3185 3186 3186 3187 3188 3189 3190 3191 3191 3192 3192 3192 3193 3193 3194 3194 3194 3194 3195 3195 3195 3195 3196 3196 3197 3198 3199 3199 3200 3202 3203 3204 3205 3206 3207 3208 3208 3209 3210 3211 3212 3214 3216 3217 3217 3216 3217 3219 3221 3221 3221 3221
3176 3178 3179 3179 3180 3181 3181 3182 3182 3182 3183 3184 3184 3185 3186 3187 3187 3188 3190 3190 3191 3191 3192 3192 3192 3193 3193 3193 3193 3193 3193 3193 3193 3194 3194 3195 3195 3196 3197 3198 3198 3199 3200 3200 3202 3203 3204 3205 3205 3206 3208 3209 3210 3212 3212 3212 3212 3214 3216 3216 3217 3217 3217
3175 3177 3177 3178 3179 3180 3180 3181 3181 3181 3181 3182 3183 3183 3184 3185 3185 3186 3188 3188 3189 3189 3190 3190 3191 3191 3192 3192 3192 3192 3192 3192 3192 3192 3192 3193 3193 3194 3194 3194 3195 3195 3196 3197 3198 3199 3200 3201 3201 3202 3203 3204 3205 3207 3207 3207 3208 3210 3211 3212 3212 3213 3213
3175 3175 3176 3177 3178 3179 3179 3179 3179 3179 3180 3180 3181 3181 3182 3182 3183 3184 3185 3185 3186 3187 3187 3188 3189 3189 3190 3190 3191 3191 3191 3191 3191 3191 3191 3191 3191 3191 3191 3191 3191 3192 3193 3193 3194 3195 3196 3197 3198 3198 3198 3199 3201 3202 3202 3203 3204 3206 3207 3208 3208 3209 3209
3174 3175 3175 3176 3177 3177 3177 3177 3177 3178 3178 3179 3179 3179 3179 3179 3180 3181 3181 3182 3183 3183 3184 3185 3186 3187 3187 3188 3188 3189 3189 3189 3189 3189 3189 3189 3189 3189 3188 3188 3188 3188 3189 3189 3190 3191 3192 3193 3193 3194 3194 3195 3196 3197 3198 3199 3200 3201 3202 3203 3204 3204 3205
3172 3173 3173 3173 3174 3174 3174 3175 3175 3175 3176 3176 3176 3177 3176 3176 3177 3178 3178 3179 3180 3180 3180 3181 3182 3183 3183 3184 3185 3186 3186 3187 3187 3187 3187 3187 3187 3187 3186 3186 3185 3185 3186 3186 3186 3187 3188 3188 3189 3190 3190 3191 3191 3192 3194 3195 3195 3196 3197 3198 3199 3199 3200
3170 3170 3170 3170 3170 3171 3171 3172 3173 3173 3173 3173 3173 3174 3174 3174 3174 3175 3175 3175 3176 3176 3176 3177 3178 3178 3178 3179 3180 3181 3182 3183 3183 3184 3184 3184 3184 3184 3184 3183 3183 3182 3182 3183 3183 3183 3184 3184 3185 3185 3186 3186 3187 3188 3189 3190 3190 3191 3192 3192 3193 3193 3194
3166 3167 3167 3167 3168 3168 3169 3169 3169 3169 3169 3170 3170 3171 3171 3171 3171 3171 3172 3172 3172 3172 3172 3173 3173 3174 3174 3174 3175 3176 3177 3178 3179 3179 3180 3180 3181 3181 3181 3181 3180 3180 3180 3180 3180 3180 3180 3181 3181 3181 3181 3182 3182 3183 3184 3185 3185 3186 3186 3186 3187 3188 3189
3163 3163 3164 3164 3165 3166 3166 3166 3166 3165 3166 3167 3167 3168 3168 3168 3168 3168 3168 3168 3168 3169 3169 3170 3170 3170 3170 3170 3170 3171 3171 3172 3173 3174 3175 3176 3177 3177 3178 3178 3178 3178 3177 3177 3177 3177 3177 3178 3178 3178 3178 3178 3178 3179 3180 3180 3180 3180 3180 3180 3181 3182 3183
3159 3160 3160 3161 3162 3162 3162 3162 3162 3162 3162 3163 3164 3164 3165 3164 3164 3164 3164 3165 3165 3166 3166 3167 3167 3167 3167 3167 3167 3167 3167 3167 3168 3169 3170 3171 3172 3173 3174 3174 3174 3174 3174 3174 3174 3173 3174 3174 3175 3175 3175 3174 3174 3175 3175 3176 3175 3175 3175 3175 3175 3176 3178
3156 3156 3157 3158 3159 3159 3159 3158 3158 3158 3159 3160 3160 3161 3161 3161 3161 3161 3161 3161 3162 3162 3163 3163 3163 3164 3164 3164 3164 3164 3163 3163 3164 3165 3166 3167 3168 3169 3169 3169 3170 3170 3170 3170 3170 3170 3170 3171 3171 3171 3171 3171 3171 3171 3171 3172 3172 3171 3170 3170 3170 3171 3172
3153 3153 3153 3154 3155 3155 3155 3155 3155 3156 3156 3156 3157 3157 3157 3158 3158 3158 3158 3158 3159 3159 3159 3159 3160 3160 3161 3161 3161 3161 3160 3160 3160 3160 3161 3162 3163 3164 3164 3165 3165 3165 3165 3165 3166 3166 3166 3166 3167 3167 3166 3167 3167 3167 3167 3168 3168 3167 3167 3166 3165 3166 3167
3149 3149 3150 3151 3151 3151 3151 3152 3153 3153 3153 3153 3153 3153 3154 3155 3155 3155 3155 3156 3156 3156 3156 3156 3156 3156 3157 3157 3158 3158 3157 3157 3157 3157 3157 3157 3158 3159 3159 3160 3160 3160 3160 3160 3161 3162 3162 3161 3161 3161 3161 3162 3163 3163 3163 3163 3164 3163 3163 3162 3161 3161 3162
3145 3147 3148 3148 3148 3147 3147 3148 3149 3150 3150 3150 3150 3150 3151 3152 3152 3152 3152 3152 3152 3152 3152 3152 3153 3153 3153 3153 3153 3154 3154 3154 3154 3154 3153 3153 3154 3154 3155 3155 3155 3156 3156 3156 3156 3156 3156 3156 3156 3156 3156 3156 3157 3158 3158 3158 3159 3158 3158 3158 3157 3157 3157
Wind_Speed
40 38 37 38 37 34 31 28 25 23 21 18 16 16 17 18 19 20 18 19 18 17 17 16 16 15 14 14 12 11 11 11 11 10 10 10 10 10 9 8 8 8 8 9 10 11 10 10 11 10 10 10 10 11 11 11 11 11 11 11 12 12 12
41 40 38 39 38 36 34 30 28 27 24 21 18 17 17 19 20 20 18 18 19 18 17 16 16 16 15 15 14 12 12 12 12 11 10 10 9 10 10 9 9 8 8 8 8 9 10 10 11 10 10 10 10 10 10 10 10 11 11 11 11 11 12
43 42 41 40 39 36 34 33 30 29 27 23 20 17 18 19 19 19 18 18 19 19 19 18 17 17 16 16 15 14 13 12 12 12 11 10 9 9 10 10 10 10 9 9 8 8 9 10 10 10 10 10 10 10 9 10 10 10 10 10 10 11 12
41 42 42 41 38 34 33 34 32 31 29 25 21 19 18 19 19 18 18 18 18 18 19 18 18 17 17 17 16 15 13 12 12 12 12 11 10 10 10 10 10 10 9 9 8 8 9 9 9 9 9 9 9 9 9 9 9 9 9 10 10 11 12
36 39 41 40 38 36 37 37 35 33 31 27 23 20 19 19 19 20 18 18 18 17 17 18 18 18 18 17 17 16 15 13 12 13 13 13 13 12 11 10 10 10 9 9 9 9 9 9 8 8 8 8 7 7 7 7 8 9 9 9 10 10 11
34 36 38 38 38 38 38 38 37 35 33 30 26 22 21 19 19 21 20 20 20 19 19 20 19 19 19 19 19 18 17 16 14 14 14 14 14 14 12 12 11 11 10 10 10 10 9 9 9 9 9 8 8 7 6 6 6 7 8 8 9 9 10
34 34 35 36 38 40 39 37 38 38 37 35 30 25 24 22 20 22 23 23 23 22 22 22 21 21 20 20 20 20 19 18 16 15 14 15 15 16 15 14 13 12 12 11 11 10 10 9 9 9 9 9 8 8 8 7 6 6 7 7 7 8 9
27 29 32 33 35 40 40 39 39 39 37 36 32 28 26 25 22 22 23 23 23 23 22 21 20 20 20 21 21 20 20 19 19 18 16 16 16 16 17 16 15 14 13 12 12 11 10 10 10 10 9 9 8 8 8 8 8 7 7 6 6 7 8
22 24 29 31 31 33 36 40 41 40 37 34 32 29 27 27 25 23 23 23 24 23 22 21 21 20 20 20 21 20 19 19 20 20 19 18 17 16 17 17 17 16 15 13 13 12 11 11 11 11 10 10 9 8 8 8 8 8 8 7 7 7 7
23 23 26 28 28 29 31 36 38 36 34 33 31 30 30 28 27 26 26 25 24 24 22 22 22 22 21 21 20 20 20 20 20 20 20 19 17 16 17 17 18 18 17 15 14 14 13 12 12 12 12 11 10 9 9 8 8 8 8 8 8 8 8
22 24 25 24 24 25 25 27 30 31 30 30 30 31 31 29 28 28 27 25 26 26 25 25 23 23 23 22 21 21 20 20 20 21 21 21 19 18 17 18 18 19 19 18 17 16 15 14 14 13 13 12 11 11 10 10 9 9 9 9 9 9 10
20 22 23 22 22 22 19 17 21 23 23 25 28 30 31 28 27 29 28 27 29 30 29 28 26 24 23 23 23 23 23 22 20 21 22 21 21 20 19 19 19 20 20 20 19 18 17 16 15 14 14 13 12 12 11 11 11 11 10 11 11 11 11
23 22 20 19 19 19 17 15 14 14 16 19 23 25 26 26 27 28 28 28 29 29 29 28 27 25 24 23 22 22 24 24 21 21 22 21 20 21 21 21 21 21 22 22 22 21 20 19 18 16 15 14 14 14 13 13 13 13 12 12 12 12 12
26 25 22 19 16 15 16 15 15 15 15 15 18 20 22 24 26 28 27 27 26 26 26 27 25 25 25 23 21 20 21 23 23 22 23 23 21 19 19 21 21 22 23 24 24 24 23 22 20 19 17 16 16 15 15 16 15 15 14 14 14 13 13
24 27 26 24 19 15 14 14 16 18 20 19 20 20 21 23 24 25 25 25 25 25 24 24 24 24 22 21 20 20 20 21 22 23 24 25 24 21 20 21 21 21 22 23 24 24 24 24 23 22 20 19 18 18 18 18 17 16 15 15 15 14 14
19 21 23 25 24 20 17 16 15 16 18 20 20 19 19 22 23 22 21 22 23 24 24 24 25 24 23 21 20 21 22 23 22 23 24 24 23 23 23 23 22 21 20 19 21 22 22 23 23 23 22 21 20 19 19 19 17 17 16 16 15 15 15
17 17 17 20 23 24 21 19 18 16 14 15 15 15 15 18 21 22 22 22 22 22 21 21 23 24 24 22 21 20 21 22 21 22 22 23 23 24 25 24 23 22 20 19 19 19 20 21 23 23 22 22 22 21 20 19 18 18 18 17 17 16 16
14 15 15 16 18 20 18 17 18 18 16 14 14 14 13 13 14 16 17 18 19 19 18 19 22 23 22 22 21 20 20 20 21 21 21 23 26 27 26 25 23 22 22 22 20 19 18 19 21 22 22 22 22 22 22 21 20 20 19 19 19 18 18
13 13 14 14 14 14 14 14 15 17 17 16 16 16 15 14 12 11 11 13 15 16 16 17 19 20 20 20 21 21 21 20 21 21 21 23 26 26 24 24 24 24 25 25 23 22 21 20 21 22 22 23 22 21 22 22 21 21 21 21 21 21 21
14 14 14 14 14 13 12 12 12 12 13 13 14 14 13 11 11 11 12 13 14 15 15 16 17 17 17 17 19 21 22 22 22 22 22 24 25 25 24 24 26 28 29 28 26 24 24 23 23 22 22 23 23 22 22 21 21 22 22 22 22 22 23
14 15 14 14 15 14 13 13 12 11 11 10 10 10 9 8 7 8 9 10 11 13 14 16 17 17 17 17 18 20 22 23 22 22 23 25 25 25 24 25 26 28 30 30 29 27 27 26 26 25 24 24 25 24 23 22 21 21 22 22 22 22 22
12 15 15 14 14 14 14 13 13 12 11 10 9 9 9 8 8 7 7 7 7 8 10 12 14 16 18 18 20 21 22 22 22 21 23 24 25 25 24 24 25 26 28 28 28 28 28 29 28 27 27 27 27 26 24 23 22 21 21 21 21 21 22
11 14 17 17 16 15 14 13 13 13 12 11 10 9 9 9 9 8 7 7 6 6 6 8 9 11 13 15 18 20 22 23 23 23 24 25 25 24 25 25 27 27 28 28 27 27 27 29 29 29 29 29 29 29 26 24 23 23 23 22 22 22 22
12 13 18 19 17 16 15 14 14 13 13 12 11 10 10 10 9 9 9 8 8 7 7 7 8 8 9 11 13 15 18 20 22 24 25 25 25 24 24 26 28 28 29 30 29 27 27 28 29 30 30 30 31 30 29 28 29 28 26 23 22 22 22
13 14 17 18 17 17 16 15 14 14 13 13 12 12 12 11 11 10 10 10 9 9 9 9 9 9 9 10 11 12 14 17 19 22 24 25 26 26 27 28 29 29 30 30 30 29 28 29 30 30 31 31 30 30 30 31 33 33 30 27 26 27 27
14 13 15 17 18 18 17 16 15 15 15 14 14 14 13 13 13 13 12 12 12 12 12 12 11 11 11 11 11 12 13 14 16 19 21 23 25 27 29 31 31 32 32 32 32 30 30 30 31 31 31 32 31 31 31 33 33 32 32 32 32 32 32
15 12 14 17 18 18 17 16 16 17 17 17 17 17 17 16 16 16 15 15 15 15 15 15 14 14 14 13 13 13 14 14 15 16 18 19 22 25 27 30 32 33 34 34 33 32 30 30 31 32 33 33 34 33 34 35 34 33 32 33 33 34 34
12 11 12 14 16 17 18 19 19 20 21 21 21 21 21 21 21 20 20 20 19 19 19 18 18 18 17 16 16 15 15 16 16 16 17 18 19 21 23 25 28 30 32 33 34 34 33 32 32 33 33 34 35 35 35 35 35 34 33 33 33 34 34
13 14 15 16 16 18 20 21 22 22 23 23 23 23 24 24 24 24 24 23 23 23 24 23 22 22 22 21 20 19 18 18 18 18 18 18 19 20 21 22 23 24 26 28 31 33 34 33 33 34 34 34 34 34 34 33 33 32 32 33 33 34 35
17 19 21 21 21 21 22 23 24 24 24 23 23 23 24 25 25 25 25 25 26 26 27 26 26 26 26 26 25 24 23 22 21 21 20 20 20 20 21 21 21 21 22 24 26 28 30 32 33 34 35 35 35 34 33 33 32 32 32 33 34 35 35
21 22 22 22 22 22 23 23 22 22 22 23 23 23 22 23 23 23 23 24 26 27 28 28 29 29 29 29 29 28 27 26 26 25 25 25 23 22 22 23 23 22 22 23 24 25 27 29 31 34 35 36 36 35 34 33 33 34 34 35 36 36 36
22 22 22 22 21 21 21 21 21 21 22 22 22 22 21 21 21 21 21 23 24 25 26 28 29 30 30 31 31 31 31 31 30 29 29 29 28 27 26 26 25 25 24 24 24 25 25 27 29 31 34 36 36 36 34 33 34 35 36 37 38 38 38
24 25 25 24 24 23 23 24 24 25 25 24 23 23 22 22 22 22 23 23 23 23 24 25 26 27 28 29 31 32 33 33 33 33 33 33 32 32 31 30 30 29 28 28 28 27 26 27 27 29 31 33 35 35 34 34 35 36 37 38 38 39 39
28 28 28 27 26 25 25 25 26 26 25 24 23 22 22 23 24 24 24 24 23 23 23 23 24 25 26 26 27 29 31 32 33 34 35 35 35 35 35 35 34 33 33 33 32 32 30 29 28 29 30 31 32 33 34 34 35 36 38 38 39 39 40
30 29 29 27 26 24 23 23 24 23 23 21 20 20 20 22 22 23 23 23 22 22 22 22 23 23 24 25 25 26 28 29 30 31 32 34 34 35 37 38 38 38 38 37 37 37 36 34 32 32 32 31 32 32 33 32 33 35 37 38 39 38 38
29 29 28 25 23 22 22 22 21 20 20 19 18 19 20 20 20 20 21 21 21 21 22 22 22 22 23 23 24 25 26 27 28 29 30 31 31 32 34 37 39 40 41 42 41 41 40 39 38 38 37 35 34 34 33 32 32 34 36 37 38 38 38
29 28 25 23 21 21 22 21 20 18 18 19 20 20 20 19 19 20 21 21 22 22 22 23 23 23 23 23 24 24 25 27 27 28 29 29 29 30 32 33 35 37 40 42 43 43 43 43 43 43 42 41 39 37 36 35 34 34 35 35 36 37 37
30 28 24 22 22 23 23 22 20 19 19 21 22 22 21 21 21 22 22 22 23 23 24 24 24 24 24 24 25 25 26 27 28 28 29 29 29 29 30 31 32 34 36 39 41 42 44 45 46 46 46 45 44 43 41 39 38 37 36 36 36 36 36
Wind_Direction
192 191 194 196 198 201 209 219 222 222 224 227 225 209 192 187 193 197 197 194 193 191 191 192 195 197 198 200 203 204 203 203 199 196 195 195 194 191 190 191 191 184 180 178 176 177 176 173 173 173 177 180 182 188 193 194 195 199 201 201 202 203 203
196 194 194 197 200 199 199 210 219 222 225 227 224 211 191 181 186 194 197 196 195 194 193 195 196 198 198 199 203 205 206 207 205 204 202 201 201 196 192 193 196 195 193 191 185 180 180 182 181 178 179 183 184 189 196 198 196 197 201 203 203 206 209
198 197 196 197 202 201 198 203 212 219 223 225 223 212 190 178 180 188 196 198 197 196 196 197 198 199 200 200 203 204 206 208 208 210 210 207 208 206 202 200 198 200 201 198 196 192 189 190 190 187 187 190 191 192 196 200 200 201 205 207 207 210 212
197 199 199 198 201 204 204 204 208 215 220 222 223 213 190 177 177 183 193 199 199 197 197 199 200 200 201 203 205 206 207 208 208 210 213 213 214 214 213 211 205 205 206 203 202 202 200 198 196 193 194 196 197 198 201 204 208 210 210 211 212 213 214
197 199 201 201 201 205 205 202 205 213 221 224 223 215 197 184 180 181 190 198 199 196 196 199 202 203 204 205 207 209 209 210 210 211 213 214 217 218 217 218 216 211 210 209 207 207 207 208 205 201 202 202 201 202 206 210 214 216 217 216 216 217 218
200 201 205 206 207 209 206 200 202 208 216 221 222 218 209 198 186 183 188 195 198 197 195 197 200 202 204 207 208 209 210 212 213 213 214 215 217 219 219 220 221 217 216 215 212 211 210 211 212 211 211 210 210 209 211 220 222 222 222 221 221 221 222
203 203 206 209 211 212 208 203 205 207 210 214 216 217 215 210 199 190 191 195 199 200 196 195 199 200 202 205 208 209 209 211 214 214 216 217 217 218 219 220 222 221 221 219 216 215 212 212 215 217 218 219 220 222 222 227 230 230 231 227 226 226 226
197 199 200 203 207 210 210 208 208 209 211 212 212 215 217 216 210 201 197 197 199 203 202 199 201 204 204 205 206 209 210 209 212 213 216 217 217 218 218 220 222 223 225 223 220 218 215 215 218 219 221 223 225 229 230 231 232 233 236 237 236 237 235
190 194 196 199 203 206 211 215 215 214 214 214 214 217 220 220 218 214 211 206 199 201 205 206 207 209 211 212 208 209 211 212 212 212 213 214 215 216 218 220 221 224 226 226 225 223 217 216 221 222 221 222 224 228 231 234 235 233 235 239 242 245 247
195 197 198 200 204 207 210 214 217 215 213 213 214 218 223 224 223 223 224 220 210 205 205 209 213 214 214 217 215 211 211 215 217 214 212 212 213 214 216 218 220 222 225 227 228 228 223 217 220 223 223 223 224 226 229 232 235 234 235 240 244 246 248
197 200 200 199 203 207 209 211 213 211 208 209 213 218 222 222 224 229 231 231 229 226 218 212 215 217 214 215 220 219 215 215 221 222 215 210 210 213 215 217 219 220 222 225 227 229 229 224 222 224 225 226 227 228 230 232 235 235 235 239 244 248 249
200 200 201 202 204 204 203 207 212 208 204 209 217 223 224 222 224 231 235 236 236 235 229 219 214 215 214 215 220 222 219 216 222 229 225 214 206 208 214 217 218 218 219 222 224 226 230 230 228 228 227 228 231 232 232 235 236 237 238 240 244 248 251
207 203 202 205 209 211 208 206 208 203 201 210 218 225 229 227 228 232 235 239 240 239 238 233 223 215 214 217 220 222 222 219 222 229 234 229 214 206 208 212 215 216 216 218 220 222 226 230 232 233 231 231 232 234 236 237 238 239 240 242 246 250 254
211 209 206 205 208 216 217 212 210 210 210 215 221 225 227 228 230 231 233 237 239 239 241 243 238 227 219 217 217 220 223 222 221 225 231 235 228 215 210 210 213 216 217 217 220 221 223 226 229 232 234 236 236 237 239 239 239 240 242 245 248 252 254
209 211 212 211 207 205 205 203 205 209 211 216 225 231 232 232 232 231 230 232 235 236 235 236 238 234 229 224 220 219 218 217 220 224 228 232 232 226 221 216 215 218 220 220 222 225 227 227 227 227 229 233 237 239 241 242 242 242 244 248 251 253 254
192 200 207 208 204 198 196 198 201 203 205 211 220 225 228 231 231 229 227 226 230 233 231 228 228 227 225 226 227 223 217 214 218 224 229 234 236 234 231 226 221 220 223 224 224 227 230 232 233 230 226 226 230 236 240 243 245 245 247 250 252 254 254
180 185 189 194 199 201 204 210 213 211 208 210 217 218 216 217 218 218 217 215 218 225 228 229 230 228 225 225 225 225 221 219 223 226 229 235 240 240 236 230 224 222 224 227 227 227 229 233 237 238 234 227 223 226 233 238 242 245 248 251 253 255 256
186 190 187 186 193 201 205 210 213 216 216 216 219 221 220 220 220 218 213 207 210 214 218 226 229 229 229 227 223 224 225 226 228 229 228 229 233 236 235 230 227 227 228 229 230 231 232 233 237 242 244 239 230 225 224 227 231 236 242 248 251 254 256
181 186 190 189 185 187 192 194 200 209 215 218 221 224 226 230 234 236 228 219 218 215 212 220 226 225 225 224 221 221 223 225 227 229 231 231 231 233 233 232 232 233 232 232 233 235 236 237 238 241 246 249 246 239 230 225 223 226 231 238 244 248 251
180 178 183 184 175 172 177 179 185 195 201 208 216 222 228 230 229 231 232 231 231 224 216 218 224 225 223 221 220 221 223 224 225 226 229 230 231 232 233 234 235 236 237 237 238 239 240 240 240 240 242 246 249 249 244 237 230 227 226 228 233 240 245
183 183 184 182 175 171 170 173 177 181 184 189 194 198 203 204 203 212 219 224 225 222 218 219 222 226 228 226 225 226 227 227 227 229 228 226 225 228 232 234 236 238 239 240 241 243 244 244 243 241 241 242 245 248 248 246 243 239 234 230 231 235 240
193 195 195 191 186 180 174 175 179 180 181 185 187 189 189 185 183 189 199 209 213 213 217 220 224 229 231 232 232 232 233 233 233 233 233 229 224 222 226 232 236 238 239 239 241 243 245 247 246 244 243 243 245 247 248 248 248 248 246 244 242 241 242
211 210 204 201 198 192 185 183 184 184 183 182 187 193 194 192 190 190 196 205 211 218 224 226 231 236 237 237 237 236 236 238 238 237 237 236 231 225 225 231 238 241 241 241 240 241 243 245 245 246 246 245 247 249 250 251 252 252 252 253 254 253 250
221 223 216 210 206 202 197 194 194 195 191 189 191 197 202 205 202 200 204 210 215 224 233 237 242 246 247 247 246 243 241 240 241 243 243 243 242 237 233 236 241 244 244 243 242 240 241 242 243 245 247 248 249 250 252 254 255 255 254 255 258 261 261
217 217 218 217 215 210 205 202 204 207 205 203 204 206 211 216 216 212 212 216 222 227 233 240 245 248 251 254 253 253 251 247 246 247 248 248 247 244 241 241 244 245 245 245 245 243 241 240 241 243 245 248 250 251 253 255 256 256 257 257 258 262 265
229 217 212 216 221 221 216 212 213 216 217 218 220 221 223 226 228 227 223 222 226 229 232 237 241 243 248 251 253 255 256 254 253 251 251 250 247 245 244 245 246 247 247 246 246 246 244 242 241 242 244 247 249 251 252 254 256 256 257 257 257 259 260
242 234 220 218 222 226 227 228 229 230 231 232 232 234 236 237 239 240 238 235 233 232 232 234 238 241 244 246 249 251 252 253 254 253 253 253 249 246 245 246 247 248 248 248 248 247 246 244 244 244 245 246 248 250 251 253 255 256 256 256 257 257 257
245 247 237 231 232 234 236 239 241 243 245 245 245 245 245 245 246 246 246 246 244 242 239 237 236 239 241 242 245 247 248 249 251 252 254 255 255 253 251 249 249 248 248 248 249 248 247 246 245 245 244 245 246 248 251 254 257 257 256 255 256 257 257
251 258 259 258 254 247 246 248 252 254 254 253 253 252 251 251 252 250 249 250 249 249 249 246 242 241 240 240 241 243 246 247 248 249 251 252 253 256 257 256 254 252 251 250 249 248 248 247 246 245 243 242 243 245 248 251 255 257 257 256 256 257 259
260 266 270 270 264 257 254 255 258 259 259 258 257 256 255 256 256 255 254 254 252 252 253 253 252 249 246 244 242 242 244 246 247 248 249 249 250 252 254 256 256 255 255 254 252 250 248 248 247 246 244 241 240 241 244 247 250 253 255 256 257 257 259
267 270 269 266 262 258 257 257 258 257 256 257 257 257 257 258 259 259 259 257 256 255 254 254 255 255 254 251 248 246 245 245 247 248 248 249 249 250 251 254 255 256 255 255 254 253 251 250 249 248 247 245 243 243 244 247 249 251 252 254 255 257 257
266 266 263 261 260 261 261 262 261 259 257 256 256 258 259 260 261 262 261 259 257 255 254 254 254 254 255 255 254 252 249 247 247 247 248 249 250 250 251 252 253 255 255 255 254 253 252 252 251 251 251 251 251 251 250 250 252 253 252 252 253 255 256
263 262 262 263 264 265 266 266 265 263 261 260 260 261 262 264 264 264 263 262 261 260 260 259 257 257 258 258 257 256 255 253 251 249 249 250 250 250 251 251 252 253 254 255 254 253 252 251 251 253 254 255 256 257 257 256 255 255 253 252 251 252 253
262 263 264 265 266 266 266 264 264 263 263 263 264 264 264 263 263 263 264 265 265 265 264 262 261 261 261 261 261 261 259 258 256 254 252 251 251 251 252 252 252 252 253 254 254 253 252 251 251 252 254 255 256 258 259 259 259 258 257 255 252 250 250
262 264 265 265 265 264 262 261 261 262 263 265 265 264 262 260 261 263 265 266 266 266 265 264 263 262 261 262 262 263 263 262 261 259 257 255 253 253 253 253 253 253 252 252 253 254 254 253 252 253 253 253 255 256 256 256 258 259 259 258 257 254 251
262 263 265 265 265 263 261 259 259 260 262 263 261 259 258 258 260 261 263 265 265 265 264 264 263 262 261 261 261 262 264 264 264 263 262 260 258 256 254 254 255 255 254 253 253 254 255 255 255 255 254 253 253 254 254 253 253 255 257 259 260 259 255
260 261 262 264 265 264 262 259 258 258 260 259 259 258 259 259 259 259 260 261 263 263 263 263 262 262 261 260 260 260 262 263 264 265 264 264 263 260 257 256 256 257 257 256 255 255 256 256 257 257 257 256 254 254 255 254 252 251 253 256 258 259 258
260 260 261 261 261 262 262 261 261 260 258 258 259 261 262 263 262 261 260 260 260 261 262 262 262 262 263 262 261 259 259 260 262 264 265 266 266 265 263 261 258 258 259 260 260 259 258 257 257 257 258 259 257 256 256 256 255 252 251 252 254 256 257